Time,TemperatureF,DewpointF,PressureIn,WindDirection,WindDirectionDegrees,WindSpeedMPH,WindSpeedGustMPH,Humidity,HourlyPrecipIn,Conditions,Clouds,dailyrainin,SoftwareType,DateUTC
2013-05-28 00:01:00,52.9,51.5,29.83,SW,225,3.7,-999.0,95,-99.99,,,0.00,Acu-Link.com,2013-05-28 07:01:00,
2013-05-28 00:16:00,53.1,51.4,29.83,SSW,202,0.0,-999.0,94,-99.99,,,0.00,Acu-Link.com,2013-05-28 07:16:00,
2013-05-28 00:32:00,53.1,51.4,29.84,NW,315,0.0,-999.0,94,-99.99,,,0.00,Acu-Link.com,2013-05-28 07:32:00,
2013-05-28 00:47:00,52.7,51.3,29.85,ENE,67,0.0,-999.0,95,-99.99,,,0.01,Acu-Link.com,2013-05-28 07:47:00,
2013-05-28 01:02:00,52.7,52.2,29.84,East,90,0.0,-999.0,98,-99.99,,,0.01,Acu-Link.com,2013-05-28 08:02:00,
2013-05-28 01:17:00,52.5,52.0,29.83,WNW,292,0.0,-999.0,98,-99.99,,,0.01,Acu-Link.com,2013-05-28 08:17:00,
2013-05-28 01:33:00,52.5,52.0,29.84,SE,135,0.0,-999.0,98,-99.99,,,0.01,Acu-Link.com,2013-05-28 08:33:00,
2013-05-28 01:48:00,52.5,52.0,29.85,South,180,0.0,-999.0,98,-99.99,,,0.01,Acu-Link.com,2013-05-28 08:48:00,
2013-05-28 02:03:00,52.5,52.0,29.85,ESE,112,0.0,-999.0,98,-99.99,,,0.01,Acu-Link.com,2013-05-28 09:03:00,
2013-05-28 02:18:00,52.5,52.0,29.84,SE,135,0.0,-999.0,98,-99.99,,,0.01,Acu-Link.com,2013-05-28 09:18:00,
2013-05-28 02:33:00,52.5,52.0,29.84,SW,225,0.0,-999.0,98,-99.99,,,0.01,Acu-Link.com,2013-05-28 09:33:00,
2013-05-28 02:48:00,52.5,52.0,29.85,NE,45,0.0,-999.0,98,-99.99,,,0.01,Acu-Link.com,2013-05-28 09:48:00,
2013-05-28 03:04:00,52.5,52.0,29.85,North,0,0.0,-999.0,98,-99.99,,,0.01,Acu-Link.com,2013-05-28 10:04:00,
2013-05-28 03:19:00,52.3,51.8,29.84,SE,135,0.0,-999.0,98,-99.99,,,0.01,Acu-Link.com,2013-05-28 10:19:00,
2013-05-28 03:34:00,52.3,51.8,29.84,East,90,0.0,-999.0,98,-99.99,,,0.01,Acu-Link.com,2013-05-28 10:34:00,
2013-05-28 03:50:00,52.3,51.8,29.84,East,90,0.0,-999.0,98,-99.99,,,0.01,Acu-Link.com,2013-05-28 10:50:00,
2013-05-28 04:05:00,52.3,51.8,29.84,ESE,112,0.0,-999.0,98,-99.99,,,0.01,Acu-Link.com,2013-05-28 11:05:00,
2013-05-28 04:20:00,52.5,52.0,29.84,NNW,337,0.0,-999.0,98,-99.99,,,0.01,Acu-Link.com,2013-05-28 11:20:00,
2013-05-28 04:35:00,52.5,52.0,29.83,SSW,202,0.0,-999.0,98,-99.99,,,0.01,Acu-Link.com,2013-05-28 11:35:00,
2013-05-28 04:51:00,52.3,51.8,29.86,WSW,247,4.7,-999.0,98,-99.99,,,0.02,Acu-Link.com,2013-05-28 11:51:00,
2013-05-28 05:06:00,52.0,51.5,29.86,SW,225,0.0,-999.0,98,-99.99,,,0.06,Acu-Link.com,2013-05-28 12:06:00,
2013-05-28 05:21:00,51.8,51.3,29.85,SSW,202,0.0,-999.0,98,-99.99,,,0.06,Acu-Link.com,2013-05-28 12:21:00,
2013-05-28 05:36:00,51.4,50.9,29.86,West,270,0.0,-999.0,98,-99.99,,,0.06,Acu-Link.com,2013-05-28 12:36:00,
2013-05-28 05:52:00,51.4,50.9,29.86,ESE,112,0.0,-999.0,98,-99.99,,,0.07,Acu-Link.com,2013-05-28 12:52:00,
2013-05-28 06:07:00,51.3,50.8,29.87,SSW,202,0.0,-999.0,98,-99.99,,,0.08,Acu-Link.com,2013-05-28 13:07:00,
2013-05-28 06:22:00,51.4,50.9,29.86,SW,225,0.0,-999.0,98,-99.99,,,0.08,Acu-Link.com,2013-05-28 13:22:00,
2013-05-28 06:38:00,51.4,50.9,29.87,East,90,0.0,-999.0,98,-99.99,,,0.08,Acu-Link.com,2013-05-28 13:38:00,
2013-05-28 06:53:00,51.6,51.1,29.87,East,90,0.0,-999.0,98,-99.99,,,0.09,Acu-Link.com,2013-05-28 13:53:00,
2013-05-28 07:08:00,51.8,51.3,29.88,WSW,247,0.0,-999.0,98,-99.99,,,0.09,Acu-Link.com,2013-05-28 14:08:00,
2013-05-28 07:23:00,52.0,51.5,29.88,SSE,157,0.0,-999.0,98,-99.99,,,0.09,Acu-Link.com,2013-05-28 14:23:00,
2013-05-28 07:38:00,52.3,51.8,29.88,East,90,0.0,-999.0,98,-99.99,,,0.10,Acu-Link.com,2013-05-28 14:38:00,
2013-05-28 07:53:00,53.1,52.5,29.87,SSE,157,0.0,-999.0,98,-99.99,,,0.10,Acu-Link.com,2013-05-28 14:53:00,
2013-05-28 08:08:00,53.4,52.8,29.88,West,270,1.1,-999.0,98,-99.99,,,0.10,Acu-Link.com,2013-05-28 15:08:00,
2013-05-28 08:24:00,53.4,52.8,29.88,SSE,157,1.7,-999.0,98,-99.99,,,0.11,Acu-Link.com,2013-05-28 15:24:00,
2013-05-28 08:39:00,53.6,53.0,29.89,ESE,112,0.0,-999.0,98,-99.99,,,0.12,Acu-Link.com,2013-05-28 15:39:00,
2013-05-28 08:54:00,54.3,53.7,29.88,SW,225,0.0,-999.0,98,-99.99,,,0.15,Acu-Link.com,2013-05-28 15:54:00,
2013-05-28 09:09:00,55.6,55.0,29.88,ESE,112,0.0,-999.0,98,-99.99,,,0.15,Acu-Link.com,2013-05-28 16:09:00,
2013-05-28 09:25:00,55.4,54.0,29.88,SSE,157,0.0,-999.0,95,-99.99,,,0.15,Acu-Link.com,2013-05-28 16:25:00,
2013-05-28 09:40:00,55.6,53.9,29.90,SSE,157,3.7,-999.0,94,-99.99,,,0.15,Acu-Link.com,2013-05-28 16:40:00,
2013-05-28 09:55:00,56.3,54.6,29.89,West,270,1.1,-999.0,94,-99.99,,,0.15,Acu-Link.com,2013-05-28 16:55:00,
2013-05-28 10:11:00,57.2,53.7,29.91,SW,225,2.7,-999.0,88,-99.99,,,0.15,Acu-Link.com,2013-05-28 17:11:00,
2013-05-28 10:26:00,57.2,52.7,29.91,WSW,247,4.7,-999.0,85,-99.99,,,0.15,Acu-Link.com,2013-05-28 17:26:00,
2013-05-28 10:41:00,57.7,53.5,29.90,West,270,3.2,-999.0,86,-99.99,,,0.15,Acu-Link.com,2013-05-28 17:41:00,
2013-05-28 10:57:00,57.9,52.8,29.90,West,270,6.3,-999.0,83,-99.99,,,0.15,Acu-Link.com,2013-05-28 17:57:00,
2013-05-28 11:12:00,58.5,53.0,29.90,SW,225,4.7,-999.0,82,-99.99,,,0.15,Acu-Link.com,2013-05-28 18:12:00,
2013-05-28 11:27:00,58.5,53.4,29.91,North,0,1.1,-999.0,83,-99.99,,,0.15,Acu-Link.com,2013-05-28 18:27:00,
2013-05-28 11:42:00,58.6,52.8,29.91,WSW,247,4.7,-999.0,81,-99.99,,,0.16,Acu-Link.com,2013-05-28 18:42:00,
2013-05-28 11:57:00,58.8,53.0,29.91,SSW,202,4.2,-999.0,81,-99.99,,,0.16,Acu-Link.com,2013-05-28 18:57:00,
2013-05-28 12:12:00,59.4,53.6,29.91,West,270,4.2,-999.0,81,-99.99,,,0.16,Acu-Link.com,2013-05-28 19:12:00,
2013-05-28 12:28:00,58.8,53.3,29.91,SW,225,5.8,-999.0,82,-99.99,,,0.16,Acu-Link.com,2013-05-28 19:28:00,
2013-05-28 12:43:00,59.2,53.0,29.92,NW,315,7.8,-999.0,80,-99.99,,,0.16,Acu-Link.com,2013-05-28 19:43:00,
2013-05-28 12:58:00,60.1,52.9,29.90,WSW,247,9.4,-999.0,77,-99.99,,,0.16,Acu-Link.com,2013-05-28 19:58:00,
2013-05-28 13:13:00,61.7,53.0,29.90,WSW,247,9.4,-999.0,73,-99.99,,,0.16,Acu-Link.com,2013-05-28 20:13:00,
2013-05-28 13:28:00,63.3,54.1,29.90,SSW,202,6.3,-999.0,72,-99.99,,,0.16,Acu-Link.com,2013-05-28 20:28:00,
2013-05-28 13:43:00,62.2,53.4,29.90,SW,225,7.8,-999.0,73,-99.99,,,0.16,Acu-Link.com,2013-05-28 20:43:00,
2013-05-28 13:58:00,63.9,54.3,29.91,West,270,4.2,-999.0,71,-99.99,,,0.16,Acu-Link.com,2013-05-28 20:58:00,
2013-05-28 14:13:00,63.3,53.7,29.89,SW,225,5.8,-999.0,71,-99.99,,,0.16,Acu-Link.com,2013-05-28 21:13:00,
2013-05-28 14:29:00,63.9,53.1,29.90,WSW,247,6.3,-999.0,68,-99.99,,,0.16,Acu-Link.com,2013-05-28 21:29:00,
2013-05-28 14:44:00,64.4,53.2,29.89,WNW,292,9.4,-999.0,67,-99.99,,,0.16,Acu-Link.com,2013-05-28 21:44:00,
2013-05-28 14:59:00,65.1,53.0,29.88,WSW,247,7.3,-999.0,65,-99.99,,,0.16,Acu-Link.com,2013-05-28 21:59:00,
2013-05-28 15:14:00,62.8,52.5,29.88,SW,225,7.8,-999.0,69,-99.99,,,0.16,Acu-Link.com,2013-05-28 22:14:00,
2013-05-28 15:29:00,64.2,53.0,29.87,WNW,292,10.4,-999.0,67,-99.99,,,0.16,Acu-Link.com,2013-05-28 22:29:00,
2013-05-28 15:44:00,64.9,52.4,29.88,ESE,112,5.3,-999.0,64,-99.99,,,0.16,Acu-Link.com,2013-05-28 22:44:00,
2013-05-28 15:59:00,64.9,52.8,29.87,WSW,247,8.3,-999.0,65,-99.99,,,0.16,Acu-Link.com,2013-05-28 22:59:00,
2013-05-28 16:14:00,65.3,53.2,29.87,SSW,202,4.7,-999.0,65,-99.99,,,0.16,Acu-Link.com,2013-05-28 23:14:00,
2013-05-28 16:30:00,63.9,51.9,29.85,SW,225,10.9,-999.0,65,-99.99,,,0.16,Acu-Link.com,2013-05-28 23:30:00,
2013-05-28 16:45:00,64.8,53.2,29.85,WSW,247,6.8,-999.0,66,-99.99,,,0.16,Acu-Link.com,2013-05-28 23:45:00,
2013-05-28 17:00:00,62.6,52.3,29.85,SW,225,8.3,-999.0,69,-99.99,,,0.16,Acu-Link.com,2013-05-29 00:00:00,
2013-05-28 17:15:00,61.3,52.2,29.84,SW,225,4.2,-999.0,72,-99.99,,,0.16,Acu-Link.com,2013-05-29 00:15:00,
2013-05-28 17:31:00,61.5,52.4,29.84,NW,315,4.2,-999.0,72,-99.99,,,0.16,Acu-Link.com,2013-05-29 00:31:00,
2013-05-28 17:46:00,61.5,53.1,29.85,SW,225,4.2,-999.0,74,-99.99,,,0.16,Acu-Link.com,2013-05-29 00:46:00,
2013-05-28 18:01:00,61.7,53.3,29.82,SSW,202,2.7,-999.0,74,-99.99,,,0.16,Acu-Link.com,2013-05-29 01:01:00,
2013-05-28 18:16:00,61.0,52.7,29.82,West,270,2.7,-999.0,74,-99.99,,,0.16,Acu-Link.com,2013-05-29 01:16:00,
2013-05-28 18:31:00,60.3,52.3,29.82,SW,225,4.2,-999.0,75,-99.99,,,0.16,Acu-Link.com,2013-05-29 01:31:00,
2013-05-28 18:47:00,59.7,52.1,29.79,WSW,247,2.2,-999.0,76,-99.99,,,0.16,Acu-Link.com,2013-05-29 01:47:00,
2013-05-28 19:02:00,59.2,52.0,29.79,SW,225,4.7,-999.0,77,-99.99,,,0.16,Acu-Link.com,2013-05-29 02:02:00,
2013-05-28 19:17:00,58.5,52.7,29.78,SW,225,5.3,-999.0,81,-99.99,,,0.16,Acu-Link.com,2013-05-29 02:17:00,
2013-05-28 19:32:00,57.4,52.9,29.78,West,270,2.7,-999.0,85,-99.99,,,0.16,Acu-Link.com,2013-05-29 02:32:00,
2013-05-28 19:47:00,57.0,53.8,29.76,ENE,67,0.0,-999.0,89,-99.99,,,0.16,Acu-Link.com,2013-05-29 02:47:00,
2013-05-28 20:03:00,56.7,54.1,29.75,ESE,112,0.0,-999.0,91,-99.99,,,0.16,Acu-Link.com,2013-05-29 03:03:00,
2013-05-28 20:18:00,56.1,54.1,29.74,ESE,112,0.0,-999.0,93,-99.99,,,0.17,Acu-Link.com,2013-05-29 03:18:00,
2013-05-28 20:33:00,55.6,54.2,29.73,ESE,112,0.0,-999.0,95,-99.99,,,0.18,Acu-Link.com,2013-05-29 03:33:00,
2013-05-28 20:48:00,55.2,53.8,29.72,ESE,112,0.0,-999.0,95,-99.99,,,0.18,Acu-Link.com,2013-05-29 03:48:00,
2013-05-28 21:03:00,54.9,54.3,29.71,South,180,0.0,-999.0,98,-99.99,,,0.18,Acu-Link.com,2013-05-29 04:03:00,
2013-05-28 21:19:00,54.7,54.1,29.72,ESE,112,0.0,-999.0,98,-99.99,,,0.18,Acu-Link.com,2013-05-29 04:19:00,
2013-05-28 21:34:00,54.5,53.9,29.73,West,270,1.1,-999.0,98,-99.99,,,0.19,Acu-Link.com,2013-05-29 04:34:00,
2013-05-28 21:49:00,54.3,53.7,29.71,ESE,112,0.0,-999.0,98,-99.99,,,0.19,Acu-Link.com,2013-05-29 04:49:00,
2013-05-28 22:04:00,54.3,53.7,29.70,ESE,112,0.0,-999.0,98,-99.99,,,0.19,Acu-Link.com,2013-05-29 05:04:00,
2013-05-28 22:19:00,54.0,53.4,29.70,West,270,0.0,-999.0,98,-99.99,,,0.20,Acu-Link.com,2013-05-29 05:19:00,
2013-05-28 22:34:00,54.0,53.4,29.70,ESE,112,0.0,-999.0,98,-99.99,,,0.20,Acu-Link.com,2013-05-29 05:34:00,
2013-05-28 22:49:00,53.8,53.2,29.70,ENE,67,0.0,-999.0,98,-99.99,,,0.20,Acu-Link.com,2013-05-29 05:49:00,
2013-05-28 23:05:00,54.0,52.0,29.71,ESE,112,0.0,-999.0,93,-99.99,,,0.20,Acu-Link.com,2013-05-29 06:05:00,
2013-05-28 23:20:00,53.4,52.8,29.70,ESE,112,0.0,-999.0,98,-99.99,,,0.20,Acu-Link.com,2013-05-29 06:20:00,
2013-05-28 23:35:00,53.2,51.8,29.71,ENE,67,0.0,-999.0,95,-99.99,,,0.20,Acu-Link.com,2013-05-29 06:35:00,
2013-05-28 23:51:00,52.9,52.4,29.68,North,0,0.0,-999.0,98,-99.99,,,0.20,Acu-Link.com,2013-05-29 06:51:00,